Regional Weather Roundup
Issued by NWS

Home | Current Version | Previous Version | Graphics & Text | Print | Product List | Glossary On
Versions: 1 2 3 4 5 6 7 8 9 10 11 12 13 14 15 16 17 18 19 20 21 22 23 24 25 26 27 28 29 30 31 32 33 34 35 36 37 38 39 40 41 42 43 44 45 46 47 48 49 50
000
ASUS45 KBOU 260207
RWRCO

WEATHER ROUNDUP FOR COLORADO
NATIONAL WEATHER SERVICE DENVER/BOULDER CO
800 PM MDT FRI JUL 25 2014

NOTE: "FAIR" INDICATES FEW OR NO CLOUDS BELOW 12000 FEET WITH NO
SIGNIFICANT WEATHER AND/OR OBSTRUCTIONS TO VISIBILITY.

COZ001>005-013-030-031-260300-
...NORTHWEST COLORADO...

CITY           SKY/WX    TMP DP  RH WIND       PRES   REMARKS
CRAIG          MOCLDY    65  50  58 E7        30.15F
HAYDEN         MOCLDY    72  46  40 E15       30.18F
MEEKER         PTCLDY    68  55  63 NE8       30.17F
MOUNT WERNER   NOT AVBL
STEAMBOAT SPGS MOCLDY    70  43  38 N5G14     30.23F
WALDEN         MOCLDY    59  48  67 S9        30.35R
$$

COZ006>008-011-260300-
...WEST CENTRAL VALLEYS...

CITY           SKY/WX    TMP DP  RH WIND       PRES   REMARKS
GRAND JUNCTION CLEAR     79  59  50 S5        30.02F
MONTROSE       CLEAR     81  51  35 SE8       30.14F
EAGLE          CLOUDY    73  48  40 CALM      30.23F
RIFLE          PTCLDY    80  47  31 SE10      30.11F
DELTA          CLEAR     86  53  31 SW5       30.08S
NUCLA          CLEAR     86  43  22 E3        30.16S
$$

COZ017>023-064>068-260300-
...SOUTHWEST COLORADO...

CITY           SKY/WX    TMP DP  RH WIND       PRES   REMARKS
DURANGO        CLEAR     84  40  21 NW15      30.18R
CORTEZ         CLEAR     86  42  21 W8        30.11S
PAGOSA SPRINGS CLEAR     80  41  24 W3        30.28R
TELLURIDE      PTCLDY    72  45  37 W3        30.41R
WOLF CREEK PAS NOT AVBL
$$

COZ009-010-012-014-032>034-037-058>063-260300-
...CENTRAL COLORADO...

CITY           SKY/WX    TMP DP  RH WIND       PRES   REMARKS
ASPEN          CLOUDY    68  53  58 S10       30.32F
BUENA VISTA    MOCLDY    63  53  70 NW13G20   30.34F
COPPER MTN     CLOUDY    54  43  66 SW5       30.66F
BERTHOUD PASS  FAIR      45  32  61 NW9       30.69F
COTTONWOOD PAS LGT RAIN  61  50  67 NW6       30.49F
GUNNISON       MOCLDY    66  48  52 E12G17    30.34S
KREMMLING      MOCLDY    61  50  67 CALM      30.30F
LEADVILLE      CLOUDY    53  50  89 NE7       30.50F
MONARCH PASS   MOCLDY    52  43  71 SW15      30.76S
SALIDA         MOCLDY   N/A N/A N/A NW13      30.38R
SUNLIGHT       PTCLDY    55  46  71 CALM      30.57S
WILKERSON PASS NOT AVBL
$$

COZ069>075-260300-
...SAN LUIS VALLEY/SANGRE DE CRISTO MOUNTAINS...

CITY           SKY/WX    TMP DP  RH WIND       PRES   REMARKS
ALAMOSA        PTCLDY    71  51  49 NW13      30.29R
LA VETA PASS   MOCLDY    59  46  63 E14G23    30.52R
SAGUACHE       MOCLDY    68  48  49 NW13G18   30.33F
$$

COZ035-036-038>040-260300-
...NORTHERN COLORADO FRONT RANGE...

CITY           SKY/WX    TMP DP  RH WIND       PRES   REMARKS
DENVER INTL AP CLOUDY    77  54  44 SW17      30.11R
DMNS CITY PARK   N/A     76  55  47 S13       30.14R
AURORA         LGT RAIN  73  58  59 SW12      30.17R
FRONT RANGE AP NOT AVBL
ERIE MUNI ARPT CLOUDY    80  52  37 S6        30.10S
BOULDER MUN AP CLOUDY    81  46  30 SW6       30.11F
CENTENNIAL     LGT RAIN  69  60  73 SW5       30.19R
BROOMFIELD     MOCLDY    77  55  47 W6        30.16R
FORT COLLINS   CLOUDY    79  55  44 S12       30.04F
LONGMONT       CLOUDY    83  46  26 SW8       30.08F
$$

COZ041-046-047-076>085-087-088-260300-
...PIKES PEAK/PALMER DIVIDE AND SOUTHERN FOOTHILLS...

CITY           SKY/WX    TMP DP  RH WIND       PRES   REMARKS
COLO. SPRINGS  CLOUDY    74  51  44 S5        30.19R
A. F. ACADEMY  CLOUDY    73  50  44 S3        30.22R
ELLICOTT       CLOUDY    73  52  47 S3        30.15F
FALCON         CLOUDY    72  50  45 CALM      30.24R
FORT CARSON    CLOUDY    71  60  68 SW8       30.14S
LIMON          MOCLDY    72  55  55 NW5       30.09F
MONUMENT HILL  MOCLDY    66  55  68 W8        30.26R
TRINIDAD       CLOUDY    77  54  44 NW15G25   30.10F
$$

COZ042>045-048>051-090-091-260300-
...NORTHEAST COLORADO...

CITY           SKY/WX    TMP DP  RH WIND       PRES   REMARKS
GREELEY ARPT   CLOUDY    79  54  41 SW17      30.05S
AKRON          CLOUDY    81  48  31 VRB3      30.03S
BURLINGTON     MOCLDY    83  60  45 NE7       29.97S
WRAY             N/A     86  56  35 NE5       29.94R
STERLING       CLOUDY    77  63  61 S9        29.94F
HOLYOKE        CLOUDY    79  68  69 CALM      29.96R
FORT MORGAN    CLOUDY    78  52  39 CALM      30.02F
$$

COZ086-089-092>099-260300-
...SOUTHEAST COLORADO...

CITY           SKY/WX    TMP DP  RH WIND       PRES   REMARKS
PUEBLO         MOCLDY    75  65  70 W8        30.05R
LA JUNTA       TSTM      84  53  34 NW26G38   29.99R
LAMAR          MOCLDY    91  53  27 SE20      29.85S
SPRINGFIELD      N/A     89  46  22 SW3       29.92R
$$


USA.gov is the U.S. government's official web portal to all federal, state and local government web resources and services.